SWR8 LSZB-EHRD

Flight info

Callsign SWR8
Flight time 1h 17m
Altitude 28000
Route MEBOX Z142 BALIR Z59 LUMEL Z600 HR DCT EDOPI DCT GIVOR DCT SORAL DCT IBERA N853 DIK M624 BUB Y28 HELEN
Aircraft RJ1H/M-SDFGIRWY/LB1

Departure

Time 2026-04-23 19:17
Airport Bern Airport (LSZB)

Arrival

Time 2026-04-23 20:34
Airport Rotterdam The Hague Airport (EHRD)
Time Latitude Longitude Altitude Speed Heading
2026-04-23 19:05 46.91175 7.50201 1653 ft 0 kts 231°
2026-04-23 19:12 46.91174 7.50199 1680 ft 1 kts 230°
2026-04-23 19:12 46.91169 7.50192 1683 ft 1 kts 226°
2026-04-23 19:13 46.91159 7.50189 1692 ft 2 kts 162°
2026-04-23 19:13 46.91142 7.50203 1707 ft 4 kts 151°
2026-04-23 19:13 46.91116 7.50228 1713 ft 5 kts 142°
2026-04-23 19:13 46.91085 7.50267 1718 ft 7 kts 140°
2026-04-23 19:14 46.91045 7.50315 1711 ft 8 kts 140°
2026-04-23 19:14 46.90996 7.50374 1710 ft 10 kts 140°
2026-04-23 19:14 46.90986 7.50386 1710 ft 0 kts 140°
2026-04-23 19:14 46.90784 7.50481 1715 ft 0 kts 320°
2026-04-23 19:16 46.90985 7.50235 1716 ft 71 kts 320°
2026-04-23 19:16 46.91524 7.49576 1681 ft 131 kts 320°
2026-04-23 19:16 46.92319 7.48613 1995 ft 155 kts 320°
2026-04-23 19:17 46.94223 7.47741 3254 ft 160 kts 26°
2026-04-23 19:17 46.94971 7.48684 4071 ft 129 kts 44°
2026-04-23 19:17 46.95640 7.49512 4490 ft 127 kts 46°
2026-04-23 19:17 46.96298 7.50414 4772 ft 139 kts 46°
2026-04-23 19:18 46.97082 7.51487 4895 ft 169 kts 44°
2026-04-23 19:18 46.98022 7.52648 5189 ft 187 kts 40°
2026-04-23 19:18 46.99132 7.53854 5449 ft 213 kts 36°
2026-04-23 19:18 47.00392 7.55048 6280 ft 219 kts 33°
2026-04-23 19:19 47.03126 7.57235 7856 ft 226 kts 28°
2026-04-23 19:19 47.04551 7.58244 8586 ft 233 kts 27°
2026-04-23 19:20 47.07698 7.60309 9722 ft 262 kts 19°
2026-04-23 19:20 47.09541 7.60387 10371 ft 274 kts 345°
2026-04-23 19:20 47.11220 7.58923 10787 ft 294 kts 316°
2026-04-23 19:20 47.12552 7.56545 11058 ft 309 kts 310°
2026-04-23 19:21 47.13922 7.54038 11369 ft 320 kts 311°
2026-04-23 19:21 47.16808 7.49050 12374 ft 324 kts 314°
2026-04-23 19:21 47.18336 7.46599 12907 ft 326 kts 315°
2026-04-23 19:22 47.19909 7.44182 13424 ft 328 kts 316°
2026-04-23 19:22 47.21482 7.41752 13956 ft 330 kts 311°
2026-04-23 19:22 47.23593 7.35663 14760 ft 335 kts 313°
2026-04-23 19:23 47.25435 7.33666 15153 ft 329 kts 341°
2026-04-23 19:23 47.27663 7.33138 15554 ft 326 kts
2026-04-23 19:23 47.29810 7.34121 15918 ft 325 kts 32°
2026-04-23 19:24 47.32222 7.39540 16571 ft 334 kts 81°
2026-04-23 19:24 47.32123 7.43009 16691 ft 345 kts 96°
2026-04-23 19:24 47.31383 7.50061 17521 ft 349 kts 97°
2026-04-23 19:25 47.30652 7.57163 18294 ft 351 kts 88°
2026-04-23 19:25 47.32720 7.63410 18974 ft 351 kts 44°
2026-04-23 19:26 47.36459 7.68058 19594 ft 356 kts 42°
2026-04-23 19:26 47.38260 7.70564 19936 ft 357 kts 46°
2026-04-23 19:27 47.41584 7.76030 20601 ft 359 kts 51°
2026-04-23 19:27 47.46288 7.84753 21578 ft 364 kts 52°
2026-04-23 19:28 47.49455 7.90646 22226 ft 367 kts 52°
2026-04-23 19:28 47.52137 7.95614 22757 ft 370 kts 52°
2026-04-23 19:29 47.53725 7.98556 23081 ft 371 kts 52°
2026-04-23 19:29 47.56942 8.04570 23689 ft 374 kts 52°
2026-04-23 19:30 47.60189 8.10625 24217 ft 376 kts 53°
2026-04-23 19:30 47.61804 8.13681 24469 ft 377 kts 53°
2026-04-23 19:30 47.65052 8.19767 25070 ft 375 kts 53°
2026-04-23 19:31 47.66663 8.22802 25381 ft 374 kts 53°
2026-04-23 19:31 47.68270 8.25831 25685 ft 373 kts 53°
2026-04-23 19:31 47.69878 8.28853 25977 ft 372 kts 53°
2026-04-23 19:31 47.71457 8.31817 26266 ft 371 kts 53°
2026-04-23 19:32 47.73061 8.34812 26548 ft 370 kts 53°
2026-04-23 19:32 47.74664 8.37795 26824 ft 369 kts 53°
2026-04-23 19:32 47.76249 8.40786 27120 ft 368 kts 54°
2026-04-23 19:32 47.77820 8.43778 27404 ft 367 kts 54°
2026-04-23 19:33 47.79386 8.46764 27714 ft 365 kts 54°
2026-04-23 19:33 47.80956 8.49717 28012 ft 363 kts 54°
2026-04-23 19:33 47.84060 8.55635 28271 ft 366 kts 54°
2026-04-23 19:34 47.87216 8.61631 28309 ft 376 kts 54°
2026-04-23 19:35 47.92104 8.70934 28306 ft 382 kts 54°
2026-04-23 19:35 47.95374 8.77212 28306 ft 383 kts 54°
2026-04-23 19:36 47.98660 8.83488 28300 ft 383 kts 54°
2026-04-23 19:36 48.01922 8.89753 28296 ft 382 kts 54°
2026-04-23 19:37 48.05178 8.96034 28301 ft 383 kts 54°
2026-04-23 19:37 48.08447 9.02302 28294 ft 381 kts 54°
2026-04-23 19:38 48.11690 9.08572 28295 ft 382 kts 54°
2026-04-23 19:38 48.14977 9.14848 28289 ft 384 kts 48°
2026-04-23 19:38 48.17127 9.17138 28311 ft 391 kts 28°
2026-04-23 19:39 48.19713 9.18498 28317 ft 397 kts 19°
2026-04-23 19:39 48.25209 9.19906 28306 ft 403 kts 11°
2026-04-23 19:40 48.30793 9.20747 28294 ft 403 kts
2026-04-23 19:40 48.36374 9.21537 28292 ft 402 kts 10°
2026-04-23 19:41 48.39756 9.22059 28278 ft 402 kts 11°
2026-04-23 19:41 48.45318 9.23035 28285 ft 402 kts 11°
2026-04-23 19:42 48.50887 9.23964 28279 ft 402 kts 11°
2026-04-23 19:42 48.56453 9.24898 28260 ft 403 kts
2026-04-23 19:42 48.59262 9.24500 28273 ft 414 kts 347°
2026-04-23 19:43 48.61870 9.22525 28289 ft 425 kts 330°
2026-04-23 19:43 48.66592 9.17131 28284 ft 432 kts 321°
2026-04-23 19:44 48.70684 9.10385 28270 ft 437 kts 313°
2026-04-23 19:44 48.74526 9.03236 28266 ft 436 kts 312°
2026-04-23 19:45 48.78370 8.96161 28266 ft 434 kts 313°
2026-04-23 19:45 48.82253 8.89128 28272 ft 435 kts 313°
2026-04-23 19:46 48.86145 8.82089 28269 ft 435 kts 313°
2026-04-23 19:46 48.90045 8.75040 28266 ft 435 kts 313°
2026-04-23 19:47 48.93968 8.68003 28270 ft 436 kts 313°
2026-04-23 19:47 48.97821 8.60945 28266 ft 437 kts 312°
2026-04-23 19:48 49.01765 8.53930 28266 ft 434 kts 314°
2026-04-23 19:48 49.05797 8.47081 28265 ft 434 kts 314°
2026-04-23 19:49 49.09806 8.40185 28264 ft 435 kts 314°
2026-04-23 19:49 49.13813 8.33266 28262 ft 435 kts 314°
2026-04-23 19:50 49.17817 8.26339 28270 ft 435 kts 314°
2026-04-23 19:50 49.21792 8.19456 28269 ft 434 kts 314°
2026-04-23 19:51 49.25787 8.12524 28267 ft 434 kts 314°
2026-04-23 19:51 49.29743 8.05561 28275 ft 433 kts 314°
2026-04-23 19:52 49.33728 7.98628 28271 ft 434 kts 313°
2026-04-23 19:52 49.37704 7.91632 28272 ft 435 kts 313°
2026-04-23 19:53 49.41680 7.84617 28272 ft 435 kts 313°
2026-04-23 19:53 49.45647 7.77600 28264 ft 435 kts 313°
2026-04-23 19:54 49.49614 7.70576 28256 ft 434 kts 313°
2026-04-23 19:54 49.53582 7.63568 28268 ft 434 kts 313°
2026-04-23 19:55 49.57544 7.56511 28294 ft 436 kts 312°
2026-04-23 19:55 49.61472 7.49449 28305 ft 436 kts 313°
2026-04-23 19:56 49.65443 7.42376 28306 ft 436 kts 312°
2026-04-23 19:56 49.69384 7.35256 28313 ft 435 kts 312°
2026-04-23 19:57 49.73047 7.28711 28303 ft 435 kts 312°
2026-04-23 19:57 49.76992 7.21592 28311 ft 435 kts 312°
2026-04-23 19:58 49.80954 7.14489 28314 ft 436 kts 312°
2026-04-23 19:58 49.84880 7.07322 28314 ft 436 kts 311°
2026-04-23 19:59 49.88833 7.00171 28310 ft 436 kts 311°
2026-04-23 19:59 49.92749 6.92994 28305 ft 436 kts 312°
2026-04-23 20:00 49.96678 6.85809 28300 ft 437 kts 311°
2026-04-23 20:00 50.00604 6.78583 28294 ft 438 kts 311°
2026-04-23 20:01 50.04536 6.71372 28304 ft 436 kts 311°
2026-04-23 20:01 50.08463 6.64166 28302 ft 436 kts 311°
2026-04-23 20:02 50.10808 6.59857 28299 ft 436 kts 311°
2026-04-23 20:02 50.14699 6.52662 28311 ft 436 kts 310°
2026-04-23 20:03 50.18565 6.45356 28309 ft 436 kts 309°
2026-04-23 20:03 50.22164 6.37712 28319 ft 438 kts 305°
2026-04-23 20:04 50.25629 6.29855 28318 ft 439 kts 304°
2026-04-23 20:04 50.29083 6.22097 28329 ft 437 kts 305°
2026-04-23 20:05 50.31978 6.15611 28330 ft 437 kts 305°
2026-04-23 20:05 50.36044 6.06493 28343 ft 437 kts 305°
2026-04-23 20:06 50.39532 5.98667 28343 ft 437 kts 304°
2026-04-23 20:06 50.42991 5.90883 28345 ft 438 kts 304°
2026-04-23 20:07 50.46458 5.83011 28345 ft 438 kts 304°
2026-04-23 20:07 50.49928 5.75148 28345 ft 437 kts 304°
2026-04-23 20:08 50.53366 5.67260 28343 ft 436 kts 304°
2026-04-23 20:08 50.56825 5.59431 28346 ft 436 kts 304°
2026-04-23 20:09 50.60264 5.51558 28352 ft 437 kts 303°
2026-04-23 20:09 50.63716 5.43659 28347 ft 437 kts 303°
2026-04-23 20:10 50.66582 5.37097 28343 ft 437 kts 303°
2026-04-23 20:10 50.70593 5.27853 28343 ft 437 kts 303°
2026-04-23 20:11 50.74004 5.19912 28347 ft 437 kts 303°
2026-04-23 20:11 50.77431 5.11984 28349 ft 437 kts 303°
2026-04-23 20:12 50.80581 5.03800 28257 ft 436 kts 292°
2026-04-23 20:12 50.81711 4.99345 27903 ft 437 kts 287°
2026-04-23 20:12 50.82627 4.94842 27522 ft 435 kts 285°
2026-04-23 20:12 50.83484 4.90249 27144 ft 435 kts 284°
2026-04-23 20:13 50.84308 4.85642 26769 ft 435 kts 284°
2026-04-23 20:13 50.85122 4.81034 26401 ft 435 kts 284°
2026-04-23 20:13 50.85954 4.76415 26034 ft 435 kts 284°
2026-04-23 20:13 50.86808 4.71809 25674 ft 436 kts 285°
2026-04-23 20:14 50.87667 4.67217 25490 ft 434 kts 285°
2026-04-23 20:14 50.88532 4.62624 25412 ft 435 kts 285°
2026-04-23 20:14 50.89409 4.58030 25387 ft 436 kts 287°
2026-04-23 20:14 50.90482 4.53532 25376 ft 437 kts 293°
2026-04-23 20:15 50.91366 4.50648 25156 ft 441 kts 297°
2026-04-23 20:15 50.92868 4.46452 24684 ft 432 kts 301°
2026-04-23 20:15 50.94422 4.42441 24215 ft 422 kts 301°
2026-04-23 20:15 50.95964 4.38531 23706 ft 413 kts 302°
2026-04-23 20:16 50.97967 4.33489 22979 ft 403 kts 302°
2026-04-23 20:16 50.99445 4.29769 22443 ft 396 kts 302°
2026-04-23 20:16 51.00428 4.27266 22086 ft 394 kts 302°
2026-04-23 20:16 51.01849 4.23568 21569 ft 390 kts 301°
2026-04-23 20:17 51.03248 4.19897 21063 ft 387 kts 301°
2026-04-23 20:17 51.04636 4.16255 20565 ft 383 kts 302°
2026-04-23 20:17 51.06018 4.12656 20075 ft 380 kts 302°
2026-04-23 20:17 51.07380 4.09089 19606 ft 376 kts 302°
2026-04-23 20:18 51.08777 4.05670 19126 ft 371 kts 309°
2026-04-23 20:18 51.10497 4.02659 18660 ft 365 kts 318°
2026-04-23 20:18 51.12392 4.00001 18129 ft 361 kts 322°
2026-04-23 20:18 51.14362 3.97538 17602 ft 358 kts 324°
2026-04-23 20:19 51.16357 3.95188 17087 ft 355 kts 325°
2026-04-23 20:19 51.18351 3.92896 16624 ft 351 kts 325°
2026-04-23 20:19 51.20321 3.90611 16362 ft 347 kts 325°
2026-04-23 20:19 51.22281 3.88354 16368 ft 347 kts 328°
2026-04-23 20:20 51.24483 3.86884 16378 ft 345 kts 352°
2026-04-23 20:20 51.26881 3.86587 16293 ft 347 kts 359°
2026-04-23 20:20 51.29290 3.86496 16008 ft 345 kts
2026-04-23 20:20 51.31678 3.86501 15654 ft 342 kts
2026-04-23 20:21 51.34050 3.86524 15187 ft 340 kts
2026-04-23 20:21 51.36405 3.86546 14708 ft 337 kts
2026-04-23 20:21 51.36683 3.86548 14652 ft 337 kts
2026-04-23 20:21 51.38899 3.86540 14209 ft 335 kts
2026-04-23 20:22 51.41218 3.86636 13675 ft 331 kts
2026-04-23 20:22 51.43326 3.87984 13167 ft 328 kts 33°
2026-04-23 20:22 51.45174 3.90101 12666 ft 323 kts 36°
2026-04-23 20:22 51.46963 3.92225 12163 ft 316 kts 37°
2026-04-23 20:23 51.48677 3.94317 11669 ft 311 kts 37°
2026-04-23 20:23 51.50386 3.96400 11178 ft 306 kts 37°
2026-04-23 20:23 51.52062 3.98441 10896 ft 295 kts 37°
2026-04-23 20:23 51.53663 4.00365 10755 ft 280 kts 37°
2026-04-23 20:24 51.55198 4.02182 10626 ft 269 kts 36°
2026-04-23 20:24 51.56700 4.03928 10308 ft 265 kts 36°
2026-04-23 20:24 51.58193 4.05653 9898 ft 264 kts 36°
2026-04-23 20:24 51.59677 4.07366 9502 ft 262 kts 36°
2026-04-23 20:25 51.61155 4.09073 9109 ft 260 kts 36°
2026-04-23 20:25 51.62579 4.10741 9040 ft 247 kts 36°
2026-04-23 20:25 51.63938 4.12336 8892 ft 238 kts 36°
2026-04-23 20:25 51.65274 4.13900 8614 ft 237 kts 36°
2026-04-23 20:26 51.66606 4.15450 8322 ft 236 kts 36°
2026-04-23 20:26 51.67934 4.16994 8023 ft 233 kts 36°
2026-04-23 20:26 51.69247 4.18527 7483 ft 233 kts 36°
2026-04-23 20:26 51.70550 4.20080 7062 ft 232 kts 36°
2026-04-23 20:27 51.71848 4.21611 6653 ft 230 kts 36°
2026-04-23 20:27 51.73137 4.23122 6217 ft 228 kts 35°
2026-04-23 20:27 51.74540 4.24254 5898 ft 221 kts 18°
2026-04-23 20:27 51.75972 4.24890 5845 ft 206 kts 14°
2026-04-23 20:28 51.77299 4.25366 5863 ft 183 kts 12°
2026-04-23 20:28 51.78505 4.25736 5552 ft 171 kts 11°
2026-04-23 20:28 51.79649 4.26073 5171 ft 164 kts 11°
2026-04-23 20:28 51.80744 4.26393 4815 ft 160 kts 11°
2026-04-23 20:29 51.81824 4.26703 4453 ft 156 kts 11°
2026-04-23 20:29 51.82880 4.27013 4115 ft 153 kts 12°
2026-04-23 20:29 51.83914 4.27326 3796 ft 149 kts 12°
2026-04-23 20:29 51.84925 4.27633 3461 ft 146 kts 12°
2026-04-23 20:30 51.85916 4.27935 3108 ft 144 kts 13°
2026-04-23 20:30 51.87933 4.28557 2557 ft 162 kts 13°
2026-04-23 20:30 51.89010 4.28895 2397 ft 156 kts 14°
2026-04-23 20:31 51.89916 4.29744 2000 ft 150 kts 54°
2026-04-23 20:31 51.90451 4.31125 1783 ft 138 kts 52°
2026-04-23 20:31 51.90983 4.32319 1584 ft 123 kts 52°
2026-04-23 20:31 51.91435 4.33389 1423 ft 109 kts 54°
2026-04-23 20:32 51.91848 4.34398 1296 ft 107 kts 54°
2026-04-23 20:32 51.92255 4.35416 1145 ft 108 kts 54°
2026-04-23 20:32 51.92658 4.36443 1013 ft 110 kts 54°
2026-04-23 20:32 51.93069 4.37482 843 ft 109 kts 54°
2026-04-23 20:33 51.93486 4.38511 707 ft 111 kts 55°
2026-04-23 20:33 51.93911 4.39576 522 ft 113 kts 54°
2026-04-23 20:33 51.94324 4.40630 382 ft 111 kts 53°
2026-04-23 20:33 51.94748 4.41684 242 ft 112 kts 54°
2026-04-23 20:34 51.95169 4.42740 85 ft 111 kts 54°
2026-04-23 20:34 51.95571 4.43737 0 ft 94 kts 57°
2026-04-23 20:34 51.95876 4.44502 -2 ft 70 kts 57°
2026-04-23 20:34 51.96073 4.45001 1 ft 38 kts 57°
2026-04-23 20:35 51.96153 4.45243 2 ft 18 kts 89°
2026-04-23 20:35 51.96087 4.45393 1 ft 17 kts 163°
2026-04-23 20:35 51.96002 4.45297 1 ft 16 kts 237°
2026-04-23 20:35 51.95945 4.45154 1 ft 15 kts 237°
2026-04-23 20:36 51.95891 4.45020 0 ft 14 kts 237°
2026-04-23 20:36 51.95840 4.44894 0 ft 13 kts 237°
2026-04-23 20:36 51.95792 4.44775 0 ft 12 kts 237°
2026-04-23 20:36 51.95748 4.44664 0 ft 11 kts 237°
2026-04-23 20:37 51.95705 4.44559 0 ft 11 kts 237°
2026-04-23 20:37 51.95067 4.43372 0 ft 0 kts 327°